When you browse on this site, cookies collect data to enhance your experience and personalize the content and advertising you see.
Visit our Privacy Policy to learn more. By continuing to use the site, you agree to this use of cookies and data.
  • In Czech Republic
  • List of Countries
  • For 7 days
  • Water Temperature
  • Satellite Maps
  • Weather Map
  • Weather Widgets
  • user-avatar
    Login

    Hourly Weather Abomey

    Today, 24 January, Thursday

    Time Temperature Precipitation Wind Pressure Humidity
    00:00 +29°C° 0 mm 3 mps 738 mmHg 72%
    01:00 +29°C° 0.1 mm 3 mps 738 mmHg 73%
    02:00 +29°C° 0.1 mm 3 mps 738 mmHg 74%
    03:00 +29°C° 0.1 mm 3 mps 738 mmHg 74%
    04:00 +28°C° 0.8 mm 3 mps 738 mmHg 75%
    05:00 +28°C° 0.8 mm 2 mps 738 mmHg 76%
    06:00 +28°C° 0.8 mm 2 mps 738 mmHg 77%
    07:00 +29°C° 0.3 mm 2 mps 739 mmHg 71%
    08:00 +30°C° 0.3 mm 3 mps 739 mmHg 64%
    09:00 +33°C° 0.3 mm 3 mps 739 mmHg 57%
    10:00 +35°C° 0 mm 3 mps 739 mmHg 50%
    11:00 +36°C° 0 mm 2 mps 739 mmHg 42%
    12:00 +38°C° 0 mm 2 mps 739 mmHg 35%
    13:00 +38°C° 0 mm 2 mps 738 mmHg 34%
    14:00 +38°C° 0 mm 2 mps 737 mmHg 32%
    15:00 +38°C° 0 mm 2 mps 736 mmHg 31%
    16:00 +37°C° 0 mm 3 mps 737 mmHg 35%
    17:00 +36°C° 0 mm 3 mps 737 mmHg 40%
    18:00 +35°C° 0 mm 4 mps 737 mmHg 44%
    19:00 +34°C° 0 mm 4 mps 737 mmHg 51%
    20:00 +33°C° 0 mm 4 mps 738 mmHg 57%
    21:00 +30°C° 0 mm 3 mps 739 mmHg 64%
    22:00 +30°C° 0 mm 3 mps 739 mmHg 65%
    23:00 +30°C° 0 mm 3 mps 739 mmHg 67%

    Tomorrow, 25 January, Friday

    Time Temperature Precipitation Wind Pressure Humidity
    00:00 +29°C° 0 mm 3 mps 739 mmHg 68%
    01:00 +29°C° 0 mm 3 mps 739 mmHg 69%
    02:00 +29°C° 0 mm 3 mps 738 mmHg 71%
    03:00 +29°C° 0 mm 3 mps 738 mmHg 72%
    04:00 +28°C° 0 mm 3 mps 738 mmHg 73%
    05:00 +28°C° 0 mm 2 mps 738 mmHg 74%
    06:00 +28°C° 0 mm 2 mps 738 mmHg 75%
    07:00 +29°C° 0 mm 2 mps 739 mmHg 69%
    08:00 +31°C° 0 mm 2 mps 740 mmHg 63%
    09:00 +32°C° 0 mm 2 mps 740 mmHg 56%
    10:00 +36°C° 0 mm 2 mps 740 mmHg 47%
    11:00 +37°C° 0 mm 1 mps 740 mmHg 37%
    12:00 +41°C° 0 mm 1 mps 739 mmHg 27%
    13:00 +41°C° 0 mm 1 mps 739 mmHg 27%
    14:00 +41°C° 0 mm 1 mps 738 mmHg 26%
    15:00 +41°C° 0 mm 1 mps 737 mmHg 25%
    16:00 +39°C° 0 mm 1 mps 737 mmHg 29%
    17:00 +38°C° 0 mm 2 mps 737 mmHg 33%
    18:00 +37°C° 0 mm 3 mps 737 mmHg 37%
    19:00 +35°C° 0 mm 3 mps 738 mmHg 48%
    20:00 +33°C° 0 mm 3 mps 738 mmHg 59%
    21:00 +30°C° 0 mm 4 mps 738 mmHg 70%
    22:00 +30°C° 0 mm 3 mps 738 mmHg 70%
    23:00 +30°C° 0 mm 3 mps 738 mmHg 70%

    Day after tomorrow, 26 January, Saturday

    Time Temperature Precipitation Wind Pressure Humidity
    00:00 +29°C° 0 mm 3 mps 738 mmHg 71%
    01:00 +29°C° 0 mm 3 mps 738 mmHg 72%
    02:00 +29°C° 0 mm 3 mps 738 mmHg 74%
    03:00 +29°C° 0 mm 3 mps 737 mmHg 76%
    04:00 +28°C° 0 mm 2 mps 737 mmHg 77%
    05:00 +28°C° 0 mm 2 mps 738 mmHg 78%
    06:00 +28°C° 0 mm 1 mps 738 mmHg 79%
    07:00 +29°C° 0 mm 2 mps 739 mmHg 72%
    08:00 +30°C° 0 mm 2 mps 739 mmHg 65%
    09:00 +33°C° 0 mm 3 mps 740 mmHg 58%
    10:00 +35°C° 0 mm 2 mps 740 mmHg 49%
    11:00 +37°C° 0 mm 2 mps 739 mmHg 39%
    12:00 +39°C° 0 mm 1 mps 739 mmHg 30%
    13:00 +40°C° 0 mm 1 mps 738 mmHg 27%
    14:00 +41°C° 0 mm 1 mps 737 mmHg 24%
    15:00 +41°C° 0 mm 1 mps 736 mmHg 21%
    16:00 +40°C° 0 mm 1 mps 736 mmHg 26%
    17:00 +38°C° 0 mm 2 mps 737 mmHg 31%
    18:00 +37°C° 0 mm 3 mps 737 mmHg 35%
    19:00 +35°C° 0 mm 3 mps 737 mmHg 49%
    20:00 +33°C° 0 mm 4 mps 738 mmHg 62%
    21:00 +30°C° 0 mm 4 mps 739 mmHg 76%
    22:00 +30°C° 0 mm 4 mps 739 mmHg 75%
    23:00 +30°C° 0 mm 4 mps 739 mmHg 75%

    27 January, Sunday

    Time Temperature Precipitation Wind Pressure Humidity
    00:00 +29°C° 0 mm 4 mps 739 mmHg 74%
    01:00 +29°C° 0 mm 4 mps 738 mmHg 75%
    02:00 +29°C° 0 mm 3 mps 738 mmHg 77%
    03:00 +29°C° 0 mm 3 mps 738 mmHg 78%
    04:00 +28°C° 0 mm 3 mps 738 mmHg 78%
    05:00 +28°C° 0 mm 2 mps 738 mmHg 79%
    06:00 +28°C° 0 mm 2 mps 739 mmHg 80%
    07:00 +29°C° 0 mm 2 mps 739 mmHg 74%
    08:00 +30°C° 0 mm 2 mps 740 mmHg 68%
    09:00 +31°C° 0 mm 2 mps 740 mmHg 63%
    10:00 +34°C° 0 mm 2 mps 740 mmHg 51%
    11:00 +37°C° 0 mm 2 mps 739 mmHg 40%
    12:00 +39°C° 0 mm 1 mps 739 mmHg 29%
    13:00 +40°C° 0 mm 1 mps 738 mmHg 25%
    14:00 +41°C° 0 mm 1 mps 737 mmHg 22%
    15:00 +42°C° 0 mm 1 mps 736 mmHg 18%
    16:00 +40°C° 0 mm 1 mps 736 mmHg 22%
    17:00 +39°C° 0 mm 2 mps 737 mmHg 26%
    18:00 +37°C° 0 mm 2 mps 737 mmHg 30%
    19:00 +35°C° 0 mm 3 mps 737 mmHg 44%
    20:00 +33°C° 0 mm 3 mps 738 mmHg 57%
    21:00 +30°C° 0 mm 4 mps 739 mmHg 71%
    22:00 +30°C° 0 mm 4 mps 739 mmHg 71%
    23:00 +30°C° 0 mm 4 mps 738 mmHg 71%

    28 January, Monday

    Time Temperature Precipitation Wind Pressure Humidity
    00:00 +30°C° 0 mm 4 mps 738 mmHg 71%
    01:00 +29°C° 0 mm 4 mps 738 mmHg 72%
    02:00 +29°C° 0 mm 3 mps 738 mmHg 73%
    03:00 +29°C° 0 mm 3 mps 737 mmHg 75%
    04:00 +29°C° 0 mm 3 mps 737 mmHg 75%
    05:00 +29°C° 0 mm 3 mps 738 mmHg 75%
    06:00 +29°C° 0 mm 3 mps 738 mmHg 75%
    07:00 +30°C° 0 mm 3 mps 738 mmHg 70%
    08:00 +31°C° 0 mm 3 mps 739 mmHg 64%
    09:00 +33°C° 0 mm 3 mps 739 mmHg 59%
    10:00 +35°C° 0 mm 3 mps 739 mmHg 51%
    11:00 +37°C° 0 mm 2 mps 739 mmHg 42%
    12:00 +38°C° 0 mm 2 mps 738 mmHg 33%
    13:00 +39°C° 0 mm 2 mps 738 mmHg 31%
    14:00 +39°C° 0 mm 2 mps 737 mmHg 29%
    15:00 +39°C° 0 mm 1 mps 736 mmHg 27%
    16:00 +38°C° 0 mm 2 mps 736 mmHg 33%
    17:00 +37°C° 0 mm 3 mps 736 mmHg 39%
    18:00 +35°C° 0 mm 4 mps 737 mmHg 45%
    19:00 +34°C° 0.1 mm 4 mps 737 mmHg 53%
    20:00 +33°C° 0.1 mm 4 mps 738 mmHg 60%
    21:00 +30°C° 0.1 mm 4 mps 738 mmHg 68%
    22:00 +30°C° 0 mm 4 mps 738 mmHg 68%
    23:00 +30°C° 0 mm 3 mps 738 mmHg 68%

    29 January, Tuesday

    Time Temperature Precipitation Wind Pressure Humidity
    00:00 +29°C° 0 mm 3 mps 738 mmHg 69%
    01:00 +29°C° 0.2 mm 3 mps 738 mmHg 71%
    02:00 +29°C° 0.2 mm 3 mps 738 mmHg 72%
    03:00 +28°C° 0.2 mm 3 mps 737 mmHg 74%
    04:00 +28°C° 0 mm 3 mps 738 mmHg 75%
    05:00 +28°C° 0 mm 2 mps 738 mmHg 77%
    06:00 +28°C° 0 mm 2 mps 738 mmHg 78%
    07:00 +29°C° 0 mm 2 mps 739 mmHg 71%
    08:00 +30°C° 0 mm 3 mps 739 mmHg 64%
    09:00 +33°C° 0 mm 3 mps 740 mmHg 57%
    10:00 +35°C° 0 mm 2 mps 739 mmHg 47%
    11:00 +37°C° 0 mm 2 mps 739 mmHg 37%
    12:00 +39°C° 0 mm 2 mps 739 mmHg 28%
    13:00 +40°C° 0 mm 1 mps 738 mmHg 25%
    14:00 +40°C° 0 mm 1 mps 737 mmHg 22%
    15:00 +41°C° 0 mm 1 mps 737 mmHg 19%
    16:00 +40°C° 0 mm 2 mps 737 mmHg 25%
    17:00 +38°C° 0 mm 2 mps 737 mmHg 30%
    18:00 +37°C° 0 mm 3 mps 737 mmHg 36%
    19:00 +35°C° 0 mm 3 mps 737 mmHg 47%
    20:00 +33°C° 0 mm 3 mps 738 mmHg 58%
    21:00 +30°C° 0 mm 4 mps 738 mmHg 69%
    22:00 +30°C° 0 mm 3 mps 738 mmHg 69%
    23:00 +30°C° 0 mm 3 mps 738 mmHg 69%
    Show more